TimeEDT,TemperatureF,Dew PointF,Humidity,Sea Level PressureIn,VisibilityMPH,Wind Direction,Wind SpeedMPH,Gust SpeedMPH,PrecipitationIn,Events,Conditions,WindDirDegrees,DateUTC
12:51 AM,33.1,16.0,50,30.09,10.0,WNW,15.0,-,N/A,,Partly Cloudy,300,2013-04-04 04:51:00
1:51 AM,30.9,16.0,54,30.11,10.0,WNW,8.1,-,N/A,,Clear,290,2013-04-04 05:51:00
2:51 AM,32.0,12.9,45,30.12,10.0,West,6.9,-,N/A,,Clear,270,2013-04-04 06:51:00
3:51 AM,30.9,12.0,46,30.12,10.0,WNW,9.2,-,N/A,,Clear,290,2013-04-04 07:51:00
4:51 AM,30.0,10.9,45,30.14,10.0,SW,4.6,-,N/A,,Clear,220,2013-04-04 08:51:00
5:51 AM,28.9,10.0,45,30.17,10.0,WSW,5.8,-,N/A,,Clear,240,2013-04-04 09:51:00
6:51 AM,30.0,10.9,45,30.19,10.0,West,3.5,-,N/A,,Clear,270,2013-04-04 10:51:00
7:51 AM,33.1,12.0,42,30.22,10.0,SW,6.9,-,N/A,,Clear,220,2013-04-04 11:51:00
8:51 AM,35.6,8.6,33,30.22,10.0,WNW,8.1,-,N/A,,Clear,290,2013-04-04 12:51:00
9:51 AM,39.9,9.0,28,30.22,10.0,WNW,6.9,-,N/A,,Clear,300,2013-04-04 13:51:00
10:51 AM,42.1,8.1,25,30.20,10.0,NW,10.4,-,N/A,,Clear,320,2013-04-04 14:51:00
11:51 AM,45.0,7.0,21,30.17,10.0,NW,6.9,-,N/A,,Clear,320,2013-04-04 15:51:00
12:51 PM,48.0,8.1,20,30.14,10.0,NW,10.4,-,N/A,,Clear,310,2013-04-04 16:51:00
1:51 PM,48.0,7.0,19,30.12,10.0,West,10.4,16.1,N/A,,Clear,280,2013-04-04 17:51:00
2:51 PM,51.1,9.0,18,30.10,10.0,WSW,11.5,19.6,N/A,,Clear,250,2013-04-04 18:51:00
3:51 PM,51.1,8.1,18,30.06,10.0,West,12.7,21.9,N/A,,Clear,280,2013-04-04 19:51:00
4:51 PM,46.9,26.1,44,30.04,10.0,SSE,13.8,19.6,N/A,,Clear,160,2013-04-04 20:51:00
5:51 PM,45.0,26.1,48,30.01,10.0,South,18.4,23.0,N/A,,Clear,190,2013-04-04 21:51:00
6:51 PM,42.1,28.0,58,30.01,10.0,South,15.0,-,N/A,,Clear,190,2013-04-04 22:51:00
7:51 PM,42.1,28.9,60,30.01,10.0,South,9.2,-,N/A,,Clear,190,2013-04-04 23:51:00
8:51 PM,42.1,30.0,62,30.01,10.0,SSW,11.5,-,N/A,,Clear,200,2013-04-05 00:51:00
9:51 PM,41.0,28.9,62,30.01,10.0,SSW,5.8,-,N/A,,Clear,210,2013-04-05 01:51:00
10:51 PM,41.0,28.0,60,29.99,10.0,South,6.9,-,N/A,,Clear,190,2013-04-05 02:51:00
11:51 PM,39.9,27.0,60,29.97,10.0,South,4.6,-,N/A,,Clear,190,2013-04-05 03:51:00